Tracking 29892 objects as of 21-Nov-2024
HD Live streaming from Space Station
objects crossing your sky now

STARLINK-31942

Track STARLINK-31942 now!
10-day predictions
STARLINK-31942 is classified as:


NORAD ID: 59899
Int'l Code: 2024-100Q
Perigee: 449.6 km
Apogee: 452.7 km
Inclination: 43.0 °
Period: 93.5 minutes
Semi major axis: 6822 km
RCS: Unknown
Launch date: May 28, 2024
Source: United States (US)
Launch site: AIR FORCE EASTERN TEST RANGE (AFETR)
Your satellite tracking list
Your tracking list is empty




NASA's NSSDC Master Catalog

Two Line Element Set (TLE):
1 59899U 24100Q   24325.91000747  .00005009  00000-0  12709-3 0  9997
2 59899  43.0009 296.1826 0002250 240.1523 119.9110 15.40704171 28516
Source of the keplerian elements: AFSPC